Time,TemperatureF,DewpointF,PressureIn,WindDirection,WindDirectionDegrees,WindSpeedMPH,WindSpeedGustMPH,Humidity,HourlyPrecipIn,Conditions,Clouds,dailyrainin,SoftwareType,DateUTC
2013-07-14 00:00:00,66.9,65.1,30.11,ENE,64,0.0,0.0,94,0.00,,---,0.00,VWS V14.00,2013-07-14 04:00:00,
2013-07-14 00:01:00,66.8,65.0,30.11,ENE,64,0.0,0.0,94,0.00,,---,0.00,VWS V14.00,2013-07-14 04:01:00,
2013-07-14 00:06:00,66.7,64.9,30.11,ENE,64,0.0,0.0,94,0.00,,---,0.00,VWS V14.00,2013-07-14 04:06:00,
2013-07-14 00:11:00,66.3,64.2,30.11,ENE,64,0.0,0.0,93,0.00,,---,0.00,VWS V14.00,2013-07-14 04:11:00,
2013-07-14 00:15:00,66.0,63.9,30.11,ENE,64,0.0,0.0,93,0.00,,---,0.00,VWS V14.00,2013-07-14 04:15:00,
2013-07-14 00:16:00,65.8,63.7,30.11,ENE,64,0.0,0.0,93,0.00,,---,0.00,VWS V14.00,2013-07-14 04:16:00,
2013-07-14 00:21:00,65.6,63.5,30.11,ENE,64,0.0,0.0,93,0.00,,---,0.00,VWS V14.00,2013-07-14 04:21:00,
2013-07-14 00:26:00,65.3,63.5,30.11,ENE,64,0.0,0.0,94,0.00,,---,0.00,VWS V14.00,2013-07-14 04:26:00,
2013-07-14 00:30:00,65.3,63.5,30.11,ENE,64,0.0,0.0,94,0.00,,---,0.00,VWS V14.00,2013-07-14 04:30:00,
2013-07-14 00:31:00,65.3,63.5,30.11,ENE,64,0.0,0.0,94,0.00,,---,0.00,VWS V14.00,2013-07-14 04:31:00,
2013-07-14 00:36:00,65.3,63.5,30.11,ENE,64,0.0,0.0,94,0.00,,---,0.00,VWS V14.00,2013-07-14 04:36:00,
2013-07-14 00:41:00,64.9,63.1,30.11,ENE,64,0.0,0.0,94,0.00,,---,0.00,VWS V14.00,2013-07-14 04:41:00,
2013-07-14 00:45:00,64.7,62.9,30.11,ENE,64,0.0,0.0,94,0.00,,---,0.00,VWS V14.00,2013-07-14 04:45:00,
2013-07-14 00:46:00,64.6,62.8,30.11,ENE,64,0.0,0.0,94,0.00,,---,0.00,VWS V14.00,2013-07-14 04:46:00,
2013-07-14 00:51:00,64.7,63.2,30.11,ENE,64,0.0,0.0,95,0.00,,---,0.00,VWS V14.00,2013-07-14 04:51:00,
2013-07-14 00:56:00,65.0,63.5,30.11,ENE,64,0.0,0.0,95,0.00,,---,0.00,VWS V14.00,2013-07-14 04:56:00,
2013-07-14 01:00:00,65.0,63.5,30.11,ENE,64,0.0,0.0,95,0.00,,---,0.00,VWS V14.00,2013-07-14 05:00:00,
2013-07-14 01:01:00,65.1,63.6,30.11,ENE,64,0.0,0.0,95,0.00,,---,0.00,VWS V14.00,2013-07-14 05:01:00,
2013-07-14 01:06:00,65.1,63.6,30.11,ENE,64,0.0,0.0,95,0.00,,---,0.00,VWS V14.00,2013-07-14 05:06:00,
2013-07-14 01:11:00,65.3,64.1,30.11,ENE,64,0.0,1.0,96,0.00,,---,0.00,VWS V14.00,2013-07-14 05:11:00,
2013-07-14 01:15:00,65.6,64.4,30.11,ENE,64,0.0,1.0,96,0.00,,---,0.00,VWS V14.00,2013-07-14 05:15:00,
2013-07-14 01:16:00,65.7,64.5,30.11,ENE,64,0.0,0.0,96,0.00,,---,0.00,VWS V14.00,2013-07-14 05:16:00,
2013-07-14 01:21:00,65.8,64.6,30.11,ENE,64,0.0,0.0,96,0.00,,---,0.00,VWS V14.00,2013-07-14 05:21:00,
2013-07-14 01:26:00,65.7,64.5,30.11,ENE,64,0.0,0.0,96,0.00,,---,0.00,VWS V14.00,2013-07-14 05:26:00,
2013-07-14 01:30:00,65.5,64.0,30.11,ENE,64,0.0,0.0,95,0.00,,---,0.00,VWS V14.00,2013-07-14 05:30:00,
2013-07-14 01:31:00,65.4,63.9,30.11,ENE,64,0.0,0.0,95,0.00,,---,0.00,VWS V14.00,2013-07-14 05:31:00,
2013-07-14 01:36:00,65.4,63.9,30.11,ENE,64,0.0,0.0,95,0.00,,---,0.00,VWS V14.00,2013-07-14 05:36:00,
2013-07-14 01:41:00,65.5,64.3,30.11,ENE,64,0.0,0.0,96,0.00,,---,0.00,VWS V14.00,2013-07-14 05:41:00,
2013-07-14 01:45:00,65.4,63.9,30.10,ENE,64,0.0,0.0,95,0.00,,---,0.00,VWS V14.00,2013-07-14 05:45:00,
2013-07-14 01:46:00,65.4,63.9,30.11,ENE,64,0.0,0.0,95,0.00,,---,0.00,VWS V14.00,2013-07-14 05:46:00,
2013-07-14 01:51:00,65.2,63.7,30.10,ENE,64,0.0,0.0,95,0.00,,---,0.00,VWS V14.00,2013-07-14 05:51:00,
2013-07-14 01:56:00,64.8,63.3,30.10,ENE,64,0.0,0.0,95,0.00,,---,0.00,VWS V14.00,2013-07-14 05:56:00,
2013-07-14 02:00:00,64.6,63.1,30.11,ENE,64,0.0,0.0,95,0.00,,---,0.00,VWS V14.00,2013-07-14 06:00:00,
2013-07-14 02:01:00,64.5,63.0,30.10,ENE,64,0.0,0.0,95,0.00,,---,0.00,VWS V14.00,2013-07-14 06:01:00,
2013-07-14 02:06:00,64.2,62.7,30.10,ENE,64,0.0,0.0,95,0.00,,---,0.00,VWS V14.00,2013-07-14 06:06:00,
2013-07-14 02:11:00,64.1,62.6,30.10,ENE,64,0.0,0.0,95,0.00,,---,0.00,VWS V14.00,2013-07-14 06:11:00,
2013-07-14 02:15:00,64.1,62.6,30.10,ENE,64,0.0,0.0,95,0.00,,---,0.00,VWS V14.00,2013-07-14 06:15:00,
2013-07-14 02:16:00,64.2,63.0,30.10,ENE,64,0.0,0.0,96,0.00,,---,0.00,VWS V14.00,2013-07-14 06:16:00,
2013-07-14 02:21:00,64.2,63.0,30.11,ENE,64,0.0,0.0,96,0.00,,---,0.00,VWS V14.00,2013-07-14 06:21:00,
2013-07-14 02:26:00,64.3,63.1,30.10,ENE,64,0.0,0.0,96,0.00,,---,0.00,VWS V14.00,2013-07-14 06:26:00,
2013-07-14 02:30:00,64.3,63.1,30.10,ENE,64,0.0,0.0,96,0.00,,---,0.00,VWS V14.00,2013-07-14 06:30:00,
2013-07-14 02:31:00,64.3,63.1,30.10,ENE,64,0.0,0.0,96,0.00,,---,0.00,VWS V14.00,2013-07-14 06:31:00,
2013-07-14 02:36:00,64.3,63.1,30.10,ENE,64,0.0,0.0,96,0.00,,---,0.00,VWS V14.00,2013-07-14 06:36:00,
2013-07-14 02:41:00,64.1,62.9,30.10,ENE,64,0.0,0.0,96,0.00,,---,0.00,VWS V14.00,2013-07-14 06:41:00,
2013-07-14 02:45:00,64.2,63.0,30.10,ENE,64,0.0,1.0,96,0.00,,---,0.00,VWS V14.00,2013-07-14 06:45:00,
2013-07-14 02:46:00,64.5,63.3,30.10,ENE,64,0.0,1.0,96,0.00,,---,0.00,VWS V14.00,2013-07-14 06:46:00,
2013-07-14 02:51:00,64.5,63.3,30.10,ENE,64,0.0,1.0,96,0.00,,---,0.00,VWS V14.00,2013-07-14 06:51:00,
2013-07-14 02:56:00,64.7,63.5,30.10,ENE,64,0.0,1.0,96,0.00,,---,0.00,VWS V14.00,2013-07-14 06:56:00,
2013-07-14 03:00:00,64.6,63.4,30.11,ENE,64,0.0,1.0,96,0.00,,---,0.00,VWS V14.00,2013-07-14 07:00:00,
2013-07-14 03:01:00,64.6,63.4,30.10,ENE,64,0.0,0.0,96,0.00,,---,0.00,VWS V14.00,2013-07-14 07:01:00,
2013-07-14 03:06:00,64.6,63.4,30.11,ENE,64,0.0,0.0,96,0.00,,---,0.00,VWS V14.00,2013-07-14 07:06:00,
2013-07-14 03:11:00,64.5,63.3,30.11,ENE,64,0.0,0.0,96,0.00,,---,0.00,VWS V14.00,2013-07-14 07:11:00,
2013-07-14 03:15:00,64.4,63.2,30.11,ENE,64,0.0,0.0,96,0.00,,---,0.00,VWS V14.00,2013-07-14 07:15:00,
2013-07-14 03:16:00,64.3,63.1,30.11,ENE,64,0.0,0.0,96,0.00,,---,0.00,VWS V14.00,2013-07-14 07:16:00,
2013-07-14 03:21:00,64.3,63.1,30.11,ENE,64,0.0,0.0,96,0.00,,---,0.00,VWS V14.00,2013-07-14 07:21:00,
2013-07-14 03:26:00,64.4,63.2,30.11,ENE,64,0.0,1.0,96,0.00,,---,0.00,VWS V14.00,2013-07-14 07:26:00,
2013-07-14 03:30:00,64.8,63.9,30.11,ENE,64,0.0,1.0,97,0.00,,---,0.00,VWS V14.00,2013-07-14 07:30:00,
2013-07-14 03:31:00,65.0,64.1,30.11,ENE,64,0.0,1.0,97,0.00,,---,0.00,VWS V14.00,2013-07-14 07:31:00,
2013-07-14 03:36:00,65.0,64.1,30.11,ENE,64,0.0,1.0,97,0.00,,---,0.00,VWS V14.00,2013-07-14 07:36:00,
2013-07-14 03:41:00,64.8,63.6,30.11,ENE,64,0.0,1.0,96,0.00,,---,0.00,VWS V14.00,2013-07-14 07:41:00,
2013-07-14 03:45:00,64.8,63.6,30.11,ENE,64,0.0,1.0,96,0.00,,---,0.00,VWS V14.00,2013-07-14 07:45:00,
2013-07-14 03:46:00,64.7,63.5,30.11,ENE,64,0.0,0.0,96,0.00,,---,0.00,VWS V14.00,2013-07-14 07:46:00,
2013-07-14 03:51:00,64.7,63.5,30.11,ENE,64,0.0,0.0,96,0.00,,---,0.00,VWS V14.00,2013-07-14 07:51:00,
2013-07-14 03:56:00,64.7,63.5,30.11,ENE,64,0.0,1.0,96,0.00,,---,0.00,VWS V14.00,2013-07-14 07:56:00,
2013-07-14 04:00:00,64.6,63.4,30.11,ENE,64,0.0,1.0,96,0.00,,---,0.00,VWS V14.00,2013-07-14 08:00:00,
2013-07-14 04:01:00,64.6,63.4,30.11,ENE,64,0.0,0.0,96,0.00,,---,0.00,VWS V14.00,2013-07-14 08:01:00,
2013-07-14 04:06:00,64.4,63.2,30.11,ENE,64,0.0,0.0,96,0.00,,---,0.00,VWS V14.00,2013-07-14 08:06:00,
2013-07-14 04:11:00,64.3,63.1,30.11,ENE,64,0.0,0.0,96,0.00,,---,0.00,VWS V14.00,2013-07-14 08:11:00,
2013-07-14 04:15:00,64.3,63.1,30.11,ENE,64,0.0,0.0,96,0.00,,---,0.00,VWS V14.00,2013-07-14 08:15:00,
2013-07-14 04:16:00,64.3,63.1,30.11,ENE,64,0.0,0.0,96,0.00,,---,0.00,VWS V14.00,2013-07-14 08:16:00,
2013-07-14 04:21:00,64.4,63.2,30.11,ENE,64,0.0,1.0,96,0.00,,---,0.00,VWS V14.00,2013-07-14 08:21:00,
2013-07-14 04:26:00,64.5,63.6,30.11,ENE,64,0.0,1.0,97,0.00,,---,0.00,VWS V14.00,2013-07-14 08:26:00,
2013-07-14 04:30:00,64.6,63.7,30.11,ENE,64,0.0,1.0,97,0.00,,---,0.00,VWS V14.00,2013-07-14 08:30:00,
2013-07-14 04:31:00,64.6,63.7,30.11,ENE,64,0.0,0.0,97,0.00,,---,0.00,VWS V14.00,2013-07-14 08:31:00,
2013-07-14 04:36:00,64.3,63.1,30.11,ENE,64,0.0,1.0,96,0.00,,---,0.00,VWS V14.00,2013-07-14 08:36:00,
2013-07-14 04:41:00,64.0,62.8,30.11,ENE,64,0.0,1.0,96,0.00,,---,0.00,VWS V14.00,2013-07-14 08:41:00,
2013-07-14 04:45:00,63.8,62.6,30.11,ENE,64,0.0,1.0,96,0.00,,---,0.00,VWS V14.00,2013-07-14 08:45:00,
2013-07-14 04:46:00,63.7,62.5,30.11,ENE,64,0.0,0.0,96,0.00,,---,0.00,VWS V14.00,2013-07-14 08:46:00,
2013-07-14 04:51:00,63.6,62.4,30.11,ENE,64,0.0,0.0,96,0.00,,---,0.00,VWS V14.00,2013-07-14 08:51:00,
2013-07-14 04:56:00,63.8,62.9,30.11,ENE,64,0.0,0.0,97,0.00,,---,0.00,VWS V14.00,2013-07-14 08:56:00,
2013-07-14 05:00:00,63.9,63.0,30.11,ENE,64,0.0,0.0,97,0.00,,---,0.00,VWS V14.00,2013-07-14 09:00:00,
2013-07-14 05:01:00,63.9,63.0,30.11,ENE,64,0.0,0.0,97,0.00,,---,0.00,VWS V14.00,2013-07-14 09:01:00,
2013-07-14 05:06:00,63.8,62.9,30.11,ENE,64,0.0,1.0,97,0.00,,---,0.00,VWS V14.00,2013-07-14 09:06:00,
2013-07-14 05:11:00,63.6,62.4,30.11,ENE,64,0.0,1.0,96,0.00,,---,0.00,VWS V14.00,2013-07-14 09:11:00,
2013-07-14 05:15:00,63.5,62.3,30.11,ENE,64,0.0,1.0,96,0.00,,---,0.00,VWS V14.00,2013-07-14 09:15:00,
2013-07-14 05:16:00,63.5,62.3,30.12,ENE,64,0.0,0.0,96,0.00,,---,0.00,VWS V14.00,2013-07-14 09:16:00,
2013-07-14 05:21:00,63.6,62.4,30.12,ENE,64,0.0,0.0,96,0.00,,---,0.00,VWS V14.00,2013-07-14 09:21:00,
2013-07-14 05:26:00,63.7,62.8,30.12,ENE,64,0.0,0.0,97,0.00,,---,0.00,VWS V14.00,2013-07-14 09:26:00,
2013-07-14 05:30:00,63.6,62.4,30.12,ENE,64,0.0,0.0,96,0.00,,---,0.00,VWS V14.00,2013-07-14 09:30:00,
2013-07-14 05:31:00,63.6,62.4,30.12,ENE,64,0.0,0.0,96,0.00,,---,0.00,VWS V14.00,2013-07-14 09:31:00,
2013-07-14 05:36:00,63.6,62.7,30.12,ENE,64,0.0,0.0,97,0.00,,---,0.00,VWS V14.00,2013-07-14 09:36:00,
2013-07-14 05:41:00,63.5,62.6,30.12,ENE,64,0.0,0.0,97,0.00,,---,0.00,VWS V14.00,2013-07-14 09:41:00,
2013-07-14 05:45:00,63.7,62.8,30.13,ENE,64,0.0,0.0,97,0.00,,---,0.00,VWS V14.00,2013-07-14 09:45:00,
2013-07-14 05:46:00,63.8,62.9,30.13,ENE,64,0.0,0.0,97,0.00,,---,0.00,VWS V14.00,2013-07-14 09:46:00,
2013-07-14 05:51:00,64.0,63.1,30.13,ENE,64,0.0,0.0,97,0.00,,---,0.00,VWS V14.00,2013-07-14 09:51:00,
2013-07-14 05:56:00,64.1,63.2,30.13,ENE,64,0.0,1.0,97,0.00,,---,0.00,VWS V14.00,2013-07-14 09:56:00,
2013-07-14 06:00:00,64.1,63.2,30.14,ENE,64,0.0,1.0,97,0.00,,---,0.00,VWS V14.00,2013-07-14 10:00:00,
2013-07-14 06:01:00,64.1,63.2,30.14,ENE,64,0.0,0.0,97,0.00,,---,0.00,VWS V14.00,2013-07-14 10:01:00,
2013-07-14 06:06:00,64.3,63.4,30.13,ENE,64,0.0,0.0,97,0.00,,---,0.00,VWS V14.00,2013-07-14 10:06:00,
2013-07-14 06:11:00,64.4,63.5,30.13,ENE,64,0.0,1.0,97,0.00,,---,0.00,VWS V14.00,2013-07-14 10:11:00,
2013-07-14 06:15:00,64.6,63.7,30.13,ENE,64,0.0,1.0,97,0.00,,---,0.00,VWS V14.00,2013-07-14 10:15:00,
2013-07-14 06:16:00,64.8,63.9,30.13,ENE,64,0.0,1.0,97,0.00,,---,0.00,VWS V14.00,2013-07-14 10:16:00,
2013-07-14 06:21:00,65.0,64.1,30.14,ENE,64,0.0,1.0,97,0.00,,---,0.00,VWS V14.00,2013-07-14 10:21:00,
2013-07-14 06:26:00,65.1,64.2,30.14,ENE,64,0.0,1.0,97,0.00,,---,0.00,VWS V14.00,2013-07-14 10:26:00,
2013-07-14 06:30:00,65.2,64.3,30.14,ENE,64,0.0,1.0,97,0.00,,---,0.00,VWS V14.00,2013-07-14 10:30:00,
2013-07-14 06:31:00,65.2,64.3,30.14,ENE,64,0.0,0.0,97,0.00,,---,0.00,VWS V14.00,2013-07-14 10:31:00,
2013-07-14 06:36:00,65.3,64.4,30.14,ENE,64,0.0,3.0,97,0.00,,---,0.00,VWS V14.00,2013-07-14 10:36:00,
2013-07-14 06:42:00,65.4,64.5,30.14,ENE,64,0.0,3.0,97,0.00,,---,0.00,VWS V14.00,2013-07-14 10:42:00,
2013-07-14 06:45:00,65.5,64.6,30.14,ENE,64,0.0,3.0,97,0.00,,---,0.00,VWS V14.00,2013-07-14 10:45:00,
2013-07-14 06:47:00,65.6,64.7,30.14,ENE,64,0.0,0.0,97,0.00,,---,0.00,VWS V14.00,2013-07-14 10:47:00,
2013-07-14 06:52:00,65.9,65.0,30.14,ENE,64,0.0,1.0,97,0.00,,---,0.00,VWS V14.00,2013-07-14 10:52:00,
2013-07-14 06:57:00,66.1,65.2,30.14,ENE,64,0.0,1.0,97,0.00,,---,0.00,VWS V14.00,2013-07-14 10:57:00,
2013-07-14 07:00:00,66.2,65.3,30.15,ENE,64,0.0,1.0,97,0.00,,---,0.00,VWS V14.00,2013-07-14 11:00:00,
2013-07-14 07:02:00,66.4,65.5,30.15,ENE,64,0.0,0.0,97,0.00,,---,0.00,VWS V14.00,2013-07-14 11:02:00,
2013-07-14 07:07:00,66.7,65.8,30.15,ENE,64,0.0,1.0,97,0.00,,---,0.00,VWS V14.00,2013-07-14 11:07:00,
2013-07-14 07:12:00,66.9,66.0,30.15,ENE,64,0.0,1.0,97,0.00,,---,0.00,VWS V14.00,2013-07-14 11:12:00,
2013-07-14 07:15:00,67.1,66.2,30.15,ENE,64,0.0,1.0,97,0.00,,---,0.00,VWS V14.00,2013-07-14 11:15:00,
2013-07-14 07:17:00,67.2,66.3,30.15,ENE,64,0.0,1.0,97,0.00,,---,0.00,VWS V14.00,2013-07-14 11:17:00,
2013-07-14 07:22:00,67.3,66.1,30.15,ENE,64,0.0,1.0,96,0.00,,---,0.00,VWS V14.00,2013-07-14 11:22:00,
2013-07-14 07:27:00,67.6,66.4,30.15,ENE,64,0.0,1.0,96,0.00,,---,0.00,VWS V14.00,2013-07-14 11:27:00,
2013-07-14 07:30:00,67.8,66.6,30.15,ENE,64,0.0,1.0,96,0.00,,---,0.00,VWS V14.00,2013-07-14 11:30:00,
2013-07-14 07:32:00,68.0,66.8,30.15,ENE,64,0.0,0.0,96,0.00,,---,0.00,VWS V14.00,2013-07-14 11:32:00,
2013-07-14 07:37:00,68.6,67.1,30.16,ENE,64,0.0,0.0,95,0.00,,---,0.00,VWS V14.00,2013-07-14 11:37:00,
2013-07-14 07:42:00,69.1,67.3,30.16,East,97,0.0,2.0,94,0.00,,---,0.00,VWS V14.00,2013-07-14 11:42:00,
2013-07-14 07:45:00,69.3,67.2,30.16,SE,130,0.0,7.0,93,0.00,,---,0.00,VWS V14.00,2013-07-14 11:45:00,
2013-07-14 07:47:00,69.5,67.4,30.16,ESE,121,0.0,1.0,93,0.00,,---,0.00,VWS V14.00,2013-07-14 11:47:00,
2013-07-14 07:52:00,70.1,68.0,30.16,SSE,160,0.0,1.0,93,0.00,,---,0.00,VWS V14.00,2013-07-14 11:52:00,
2013-07-14 07:57:00,70.6,67.8,30.16,South,179,0.0,1.0,91,0.00,,---,0.00,VWS V14.00,2013-07-14 11:57:00,
2013-07-14 08:00:00,70.8,68.1,30.16,SE,134,0.0,1.0,91,0.00,,---,0.00,VWS V14.00,2013-07-14 12:00:00,
2013-07-14 08:02:00,71.0,67.9,30.16,ESE,119,0.0,5.0,90,0.00,,---,0.00,VWS V14.00,2013-07-14 12:02:00,
2013-07-14 08:07:00,71.4,68.3,30.16,ESE,119,0.0,5.0,90,0.00,,---,0.00,VWS V14.00,2013-07-14 12:07:00,
2013-07-14 08:12:00,71.8,68.4,30.16,SE,138,0.0,5.0,89,0.00,,---,0.00,VWS V14.00,2013-07-14 12:12:00,
2013-07-14 08:15:00,72.0,68.6,30.16,ESE,117,0.0,5.0,89,0.00,,---,0.00,VWS V14.00,2013-07-14 12:15:00,
2013-07-14 08:17:00,72.0,68.3,30.16,South,174,0.0,7.0,88,0.00,,---,0.00,VWS V14.00,2013-07-14 12:17:00,
2013-07-14 08:22:00,72.4,69.0,30.16,ESE,115,0.0,7.0,89,0.00,,---,0.00,VWS V14.00,2013-07-14 12:22:00,
2013-07-14 08:27:00,73.0,69.2,30.16,ESE,115,0.0,7.0,88,0.00,,---,0.00,VWS V14.00,2013-07-14 12:27:00,
2013-07-14 08:30:00,73.2,69.4,30.16,ESE,114,1.0,7.0,88,0.00,,---,0.00,VWS V14.00,2013-07-14 12:30:00,
2013-07-14 08:32:00,73.4,69.3,30.16,SSE,153,0.0,5.0,87,0.00,,---,0.00,VWS V14.00,2013-07-14 12:32:00,
2013-07-14 08:37:00,73.8,69.7,30.16,ESE,120,0.0,5.0,87,0.00,,---,0.00,VWS V14.00,2013-07-14 12:37:00,
2013-07-14 08:42:00,74.2,69.8,30.16,SE,126,0.0,5.0,86,0.00,,---,0.00,VWS V14.00,2013-07-14 12:42:00,
2013-07-14 08:45:00,74.4,69.9,30.16,ESE,112,4.0,5.0,86,0.00,,---,0.00,VWS V14.00,2013-07-14 12:45:00,
2013-07-14 08:47:00,74.6,69.8,30.16,South,169,0.0,4.0,85,0.00,,---,0.00,VWS V14.00,2013-07-14 12:47:00,
2013-07-14 08:52:00,74.8,69.7,30.16,ESE,116,2.0,5.0,84,0.00,,---,0.00,VWS V14.00,2013-07-14 12:52:00,
2013-07-14 08:57:00,75.0,69.8,30.16,SE,138,0.0,5.0,84,0.00,,---,0.00,VWS V14.00,2013-07-14 12:57:00,
2013-07-14 09:00:00,75.2,70.0,30.16,South,174,0.0,5.0,84,0.00,,---,0.00,VWS V14.00,2013-07-14 13:00:00,
2013-07-14 09:02:00,75.4,70.2,30.16,South,182,1.0,6.0,84,0.00,,---,0.00,VWS V14.00,2013-07-14 13:02:00,
2013-07-14 09:07:00,75.8,70.3,30.16,South,176,1.0,7.0,83,0.00,,---,0.00,VWS V14.00,2013-07-14 13:07:00,
2013-07-14 09:12:00,75.9,70.0,30.16,South,171,1.0,9.0,82,0.00,,---,0.00,VWS V14.00,2013-07-14 13:12:00,
2013-07-14 09:15:00,75.9,70.0,30.16,SSW,212,0.0,9.0,82,0.00,,---,0.00,VWS V14.00,2013-07-14 13:15:00,
2013-07-14 09:17:00,76.0,70.1,30.16,SE,132,6.0,7.0,82,0.00,,---,0.00,VWS V14.00,2013-07-14 13:17:00,
2013-07-14 09:22:00,76.1,70.2,30.16,SSW,199,7.0,7.0,82,0.00,,---,0.00,VWS V14.00,2013-07-14 13:22:00,
2013-07-14 09:27:00,76.2,69.9,30.16,South,178,5.0,10.0,81,0.00,,---,0.00,VWS V14.00,2013-07-14 13:27:00,
2013-07-14 09:30:00,76.2,70.7,30.15,SSW,194,3.0,10.0,83,0.00,,---,0.00,VWS V14.00,2013-07-14 13:30:00,
2013-07-14 09:32:00,76.4,70.5,30.15,SSW,200,3.0,4.0,82,0.00,,---,0.00,VWS V14.00,2013-07-14 13:32:00,
2013-07-14 09:37:00,76.5,70.2,30.15,South,174,4.0,9.0,81,0.00,,---,0.00,VWS V14.00,2013-07-14 13:37:00,
2013-07-14 09:42:00,76.7,70.4,30.15,SSW,192,5.0,9.0,81,0.00,,---,0.00,VWS V14.00,2013-07-14 13:42:00,
2013-07-14 09:45:00,76.8,70.2,30.15,SSW,204,0.0,9.0,80,0.00,,---,0.00,VWS V14.00,2013-07-14 13:45:00,
2013-07-14 09:47:00,76.9,70.6,30.15,South,188,0.0,2.0,81,0.00,,---,0.00,VWS V14.00,2013-07-14 13:47:00,
2013-07-14 09:52:00,77.4,70.8,30.15,SE,145,0.0,6.0,80,0.00,,---,0.00,VWS V14.00,2013-07-14 13:52:00,
2013-07-14 09:57:00,77.7,71.0,30.15,South,191,4.0,7.0,80,0.00,,---,0.00,VWS V14.00,2013-07-14 13:57:00,
2013-07-14 10:00:00,77.7,70.7,30.15,South,169,5.0,7.0,79,0.00,,---,0.00,VWS V14.00,2013-07-14 14:00:00,
2013-07-14 10:02:00,77.7,70.7,30.15,South,178,0.0,5.0,79,0.00,,---,0.00,VWS V14.00,2013-07-14 14:02:00,
2013-07-14 10:07:00,77.9,71.2,30.15,SSW,206,3.0,7.0,80,0.00,,---,0.00,VWS V14.00,2013-07-14 14:07:00,
2013-07-14 10:12:00,78.1,71.1,30.15,SSW,205,0.0,8.0,79,0.00,,---,0.00,VWS V14.00,2013-07-14 14:12:00,
2013-07-14 10:15:00,78.2,71.2,30.15,SSE,155,1.0,8.0,79,0.00,,---,0.00,VWS V14.00,2013-07-14 14:15:00,
2013-07-14 10:17:00,78.3,70.9,30.15,South,173,1.0,7.0,78,0.00,,---,0.00,VWS V14.00,2013-07-14 14:17:00,
2013-07-14 10:22:00,78.5,71.1,30.15,South,183,0.0,7.0,78,0.00,,---,0.00,VWS V14.00,2013-07-14 14:22:00,
2013-07-14 10:27:00,78.7,71.3,30.15,SSE,152,0.0,7.0,78,0.00,,---,0.00,VWS V14.00,2013-07-14 14:27:00,
2013-07-14 10:30:00,78.8,71.4,30.15,South,175,5.0,7.0,78,0.00,,---,0.00,VWS V14.00,2013-07-14 14:30:00,
2013-07-14 10:32:00,78.9,71.5,30.15,SSE,167,0.0,5.0,78,0.00,,---,0.00,VWS V14.00,2013-07-14 14:32:00,
2013-07-14 10:37:00,79.3,71.5,30.15,SW,221,2.0,5.0,77,0.00,,---,0.00,VWS V14.00,2013-07-14 14:37:00,
2013-07-14 10:42:00,79.5,71.7,30.15,South,184,0.0,7.0,77,0.00,,---,0.00,VWS V14.00,2013-07-14 14:42:00,
2013-07-14 10:45:00,79.6,71.8,30.15,West,260,1.0,7.0,77,0.00,,---,0.00,VWS V14.00,2013-07-14 14:45:00,
2013-07-14 10:47:00,79.7,71.1,30.15,WSW,243,0.0,5.0,75,0.00,,---,0.00,VWS V14.00,2013-07-14 14:47:00,
2013-07-14 10:52:00,79.6,71.4,30.15,WSW,249,0.0,8.0,76,0.00,,---,0.00,VWS V14.00,2013-07-14 14:52:00,
2013-07-14 10:57:00,79.9,72.4,30.15,South,184,3.0,8.0,78,0.00,,---,0.00,VWS V14.00,2013-07-14 14:57:00,
2013-07-14 11:00:00,80.2,71.9,30.15,SSW,200,4.0,8.0,76,0.00,,---,0.00,VWS V14.00,2013-07-14 15:00:00,
2013-07-14 11:02:00,80.3,71.3,30.15,SW,229,1.0,5.0,74,0.00,,---,0.00,VWS V14.00,2013-07-14 15:02:00,
2013-07-14 11:07:00,80.1,71.5,30.15,WSW,247,0.0,7.0,75,0.00,,---,0.00,VWS V14.00,2013-07-14 15:07:00,
2013-07-14 11:12:00,80.3,71.7,30.15,SE,132,0.0,7.0,75,0.00,,---,0.00,VWS V14.00,2013-07-14 15:12:00,
2013-07-14 11:15:00,80.6,72.7,30.15,SSE,160,0.0,7.0,77,0.00,,---,0.00,VWS V14.00,2013-07-14 15:15:00,
2013-07-14 11:17:00,80.9,72.2,30.15,South,171,0.0,5.0,75,0.00,,---,0.00,VWS V14.00,2013-07-14 15:17:00,
2013-07-14 11:22:00,81.2,71.7,30.15,East,94,1.0,6.0,73,0.00,,---,0.00,VWS V14.00,2013-07-14 15:22:00,
2013-07-14 11:27:00,81.4,72.3,30.15,South,185,1.0,7.0,74,0.00,,---,0.00,VWS V14.00,2013-07-14 15:27:00,
2013-07-14 11:30:00,81.4,71.9,30.14,South,185,0.0,7.0,73,0.00,,---,0.00,VWS V14.00,2013-07-14 15:30:00,
2013-07-14 11:32:00,81.4,71.9,30.14,South,184,0.0,7.0,73,0.00,,---,0.00,VWS V14.00,2013-07-14 15:32:00,
2013-07-14 11:37:00,81.6,71.7,30.14,South,178,5.0,8.0,72,0.00,,---,0.00,VWS V14.00,2013-07-14 15:37:00,
2013-07-14 11:42:00,81.9,72.4,30.14,South,178,5.0,9.0,73,0.00,,---,0.00,VWS V14.00,2013-07-14 15:42:00,
2013-07-14 11:45:00,81.9,72.0,30.14,East,96,0.0,9.0,72,0.00,,---,0.00,VWS V14.00,2013-07-14 15:45:00,
2013-07-14 11:47:00,81.9,72.4,30.14,SSE,153,0.0,5.0,73,0.00,,---,0.00,VWS V14.00,2013-07-14 15:47:00,
2013-07-14 11:52:00,82.1,72.2,30.14,SE,134,0.0,5.0,72,0.00,,---,0.00,VWS V14.00,2013-07-14 15:52:00,
2013-07-14 11:57:00,82.3,72.4,30.14,SSW,192,0.0,8.0,72,0.00,,---,0.00,VWS V14.00,2013-07-14 15:57:00,
2013-07-14 12:00:00,82.3,72.0,30.14,South,184,4.0,8.0,71,0.00,,---,0.00,VWS V14.00,2013-07-14 16:00:00,
2013-07-14 12:02:00,82.2,71.9,30.14,South,180,0.0,4.0,71,0.00,,---,0.00,VWS V14.00,2013-07-14 16:02:00,
2013-07-14 12:07:00,82.2,71.9,30.14,SSE,155,0.0,7.0,71,0.00,,---,0.00,VWS V14.00,2013-07-14 16:07:00,
2013-07-14 12:12:00,82.3,72.0,30.14,SSW,201,0.0,7.0,71,0.00,,---,0.00,VWS V14.00,2013-07-14 16:12:00,
2013-07-14 12:15:00,82.3,71.5,30.14,SW,227,0.0,7.0,70,0.00,,---,0.00,VWS V14.00,2013-07-14 16:15:00,
2013-07-14 12:17:00,82.5,72.2,30.15,SSE,157,4.0,7.0,71,0.00,,---,0.00,VWS V14.00,2013-07-14 16:17:00,
2013-07-14 12:22:00,82.7,71.5,30.14,South,175,1.0,8.0,69,0.00,,---,0.00,VWS V14.00,2013-07-14 16:22:00,
2013-07-14 12:28:00,82.9,71.3,30.14,South,171,0.0,8.0,68,0.00,,---,0.00,VWS V14.00,2013-07-14 16:28:00,
2013-07-14 12:30:00,83.0,73.1,30.14,South,176,6.0,8.0,72,0.00,,---,0.00,VWS V14.00,2013-07-14 16:30:00,
2013-07-14 12:33:00,83.1,71.0,30.14,SSW,199,0.0,10.0,67,0.00,,---,0.00,VWS V14.00,2013-07-14 16:33:00,
2013-07-14 12:38:00,83.1,71.4,30.14,SSW,194,3.0,10.0,68,0.00,,---,0.00,VWS V14.00,2013-07-14 16:38:00,
2013-07-14 12:43:00,83.1,71.4,30.14,SSE,153,1.0,10.0,68,0.00,,---,0.00,VWS V14.00,2013-07-14 16:43:00,
2013-07-14 12:45:00,83.1,71.0,30.14,South,175,0.0,10.0,67,0.00,,---,0.00,VWS V14.00,2013-07-14 16:45:00,
2013-07-14 12:48:00,83.2,72.0,30.14,SW,221,3.0,8.0,69,0.00,,---,0.00,VWS V14.00,2013-07-14 16:48:00,
2013-07-14 12:53:00,83.4,70.9,30.14,East,96,1.0,8.0,66,0.00,,---,0.00,VWS V14.00,2013-07-14 16:53:00,
2013-07-14 12:58:00,83.5,72.3,30.14,West,263,2.0,8.0,69,0.00,,---,0.00,VWS V14.00,2013-07-14 16:58:00,
2013-07-14 13:00:00,83.4,72.2,30.14,SW,215,2.0,8.0,69,0.00,,---,0.00,VWS V14.00,2013-07-14 17:00:00,
2013-07-14 13:03:00,83.4,71.7,30.14,SSW,203,1.0,7.0,68,0.00,,---,0.00,VWS V14.00,2013-07-14 17:03:00,
2013-07-14 13:08:00,82.9,71.7,30.14,SSW,206,0.0,7.0,69,0.00,,---,0.00,VWS V14.00,2013-07-14 17:08:00,
2013-07-14 13:13:00,83.0,71.8,30.14,SSE,149,0.0,7.0,69,0.00,,---,0.00,VWS V14.00,2013-07-14 17:13:00,
2013-07-14 13:15:00,83.1,71.4,30.13,South,188,5.0,7.0,68,0.00,,---,0.00,VWS V14.00,2013-07-14 17:15:00,
2013-07-14 13:18:00,83.5,73.1,30.13,WSW,244,3.0,8.0,71,0.00,,---,0.00,VWS V14.00,2013-07-14 17:18:00,
2013-07-14 13:23:00,83.9,71.3,30.13,South,188,3.0,8.0,66,0.00,,---,0.00,VWS V14.00,2013-07-14 17:23:00,
2013-07-14 13:28:00,84.0,71.4,30.13,SSE,156,2.0,8.0,66,0.00,,---,0.00,VWS V14.00,2013-07-14 17:28:00,
2013-07-14 13:30:00,83.9,72.2,30.13,South,173,5.0,8.0,68,0.00,,---,0.00,VWS V14.00,2013-07-14 17:30:00,
2013-07-14 13:33:00,83.7,71.6,30.13,South,176,4.0,5.0,67,0.00,,---,0.00,VWS V14.00,2013-07-14 17:33:00,
2013-07-14 13:38:00,83.8,72.6,30.13,SW,232,0.0,6.0,69,0.00,,---,0.00,VWS V14.00,2013-07-14 17:38:00,
2013-07-14 13:43:00,84.3,73.5,30.13,WSW,238,1.0,6.0,70,0.00,,---,0.00,VWS V14.00,2013-07-14 17:43:00,
2013-07-14 13:45:00,84.2,72.1,30.13,WSW,257,0.0,6.0,67,0.00,,---,0.00,VWS V14.00,2013-07-14 17:45:00,
2013-07-14 13:48:00,83.9,71.8,30.13,WSW,254,0.0,8.0,67,0.00,,---,0.00,VWS V14.00,2013-07-14 17:48:00,
2013-07-14 13:53:00,83.9,71.8,30.13,WSW,246,0.0,8.0,67,0.00,,---,0.00,VWS V14.00,2013-07-14 17:53:00,
2013-07-14 13:58:00,83.9,71.3,30.13,SSW,196,0.0,8.0,66,0.00,,---,0.00,VWS V14.00,2013-07-14 17:58:00,
2013-07-14 14:00:00,83.7,71.6,30.13,SSW,196,0.0,8.0,67,0.00,,---,0.00,VWS V14.00,2013-07-14 18:00:00,
2013-07-14 14:03:00,83.5,71.8,30.13,West,265,0.0,3.0,68,0.00,,---,0.00,VWS V14.00,2013-07-14 18:03:00,
2013-07-14 14:08:00,83.5,73.1,30.13,WSW,246,3.0,4.0,71,0.00,,---,0.00,VWS V14.00,2013-07-14 18:08:00,
2013-07-14 14:13:00,83.9,71.8,30.13,NE,38,0.0,6.0,67,0.00,,---,0.00,VWS V14.00,2013-07-14 18:13:00,
2013-07-14 14:15:00,84.0,73.2,30.13,ESE,108,0.0,6.0,70,0.00,,---,0.00,VWS V14.00,2013-07-14 18:15:00,
2013-07-14 14:18:00,84.0,72.3,30.13,SE,124,0.0,1.0,68,0.00,,---,0.00,VWS V14.00,2013-07-14 18:18:00,
2013-07-14 14:23:00,83.9,72.2,30.13,SSW,204,0.0,1.0,68,0.00,,---,0.00,VWS V14.00,2013-07-14 18:23:00,
2013-07-14 14:28:00,84.3,72.2,30.13,West,263,2.0,4.0,67,0.00,,---,0.00,VWS V14.00,2013-07-14 18:28:00,
2013-07-14 14:30:00,84.5,71.9,30.13,West,263,0.0,4.0,66,0.00,,---,0.00,VWS V14.00,2013-07-14 18:30:00,
2013-07-14 14:33:00,84.5,71.9,30.13,SW,232,0.0,1.0,66,0.00,,---,0.00,VWS V14.00,2013-07-14 18:33:00,
2013-07-14 14:38:00,84.8,73.5,30.13,WSW,254,3.0,5.0,69,0.00,,---,0.00,VWS V14.00,2013-07-14 18:38:00,
2013-07-14 14:43:00,84.4,72.2,30.13,West,261,0.0,5.0,67,0.00,,---,0.00,VWS V14.00,2013-07-14 18:43:00,
2013-07-14 14:45:00,84.2,72.9,30.13,West,261,0.0,5.0,69,0.00,,---,0.00,VWS V14.00,2013-07-14 18:45:00,
2013-07-14 14:48:00,84.0,72.3,30.13,West,261,0.0,2.0,68,0.00,,---,0.00,VWS V14.00,2013-07-14 18:48:00,
2013-07-14 14:53:00,84.2,73.8,30.13,SSE,156,0.0,5.0,71,0.00,,---,0.00,VWS V14.00,2013-07-14 18:53:00,
2013-07-14 14:58:00,85.0,73.3,30.12,SSE,154,1.0,6.0,68,0.00,,---,0.00,VWS V14.00,2013-07-14 18:58:00,
2013-07-14 15:00:00,85.0,71.9,30.13,ESE,113,5.0,7.0,65,0.00,,---,0.00,VWS V14.00,2013-07-14 19:00:00,
2013-07-14 15:03:00,84.8,72.6,30.12,South,185,2.0,5.0,67,0.00,,---,0.00,VWS V14.00,2013-07-14 19:03:00,
2013-07-14 15:08:00,84.4,73.1,30.12,South,175,0.0,5.0,69,0.00,,---,0.00,VWS V14.00,2013-07-14 19:08:00,
2013-07-14 15:13:00,84.2,72.9,30.12,South,190,0.0,5.0,69,0.00,,---,0.00,VWS V14.00,2013-07-14 19:13:00,
2013-07-14 15:15:00,84.1,72.4,30.12,South,190,3.0,5.0,68,0.00,,---,0.00,VWS V14.00,2013-07-14 19:15:00,
2013-07-14 15:18:00,83.8,72.1,30.12,South,190,0.0,3.0,68,0.00,,---,0.00,VWS V14.00,2013-07-14 19:18:00,
2013-07-14 15:23:00,83.8,72.6,30.12,SW,217,0.0,3.0,69,0.00,,---,0.00,VWS V14.00,2013-07-14 19:23:00,
2013-07-14 15:28:00,83.7,72.5,30.12,South,185,2.0,5.0,69,0.00,,---,0.00,VWS V14.00,2013-07-14 19:28:00,
2013-07-14 15:30:00,83.6,71.5,30.12,South,182,0.0,5.0,67,0.00,,---,0.00,VWS V14.00,2013-07-14 19:30:00,
2013-07-14 15:33:00,83.4,72.2,30.12,South,182,0.0,1.0,69,0.00,,---,0.00,VWS V14.00,2013-07-14 19:33:00,
2013-07-14 15:38:00,83.4,71.3,30.12,South,177,0.0,5.0,67,0.00,,---,0.00,VWS V14.00,2013-07-14 19:38:00,
2013-07-14 15:43:00,83.4,71.7,30.12,South,169,0.0,6.0,68,0.00,,---,0.00,VWS V14.00,2013-07-14 19:43:00,
2013-07-14 15:45:00,83.4,71.3,30.12,SSE,151,0.0,6.0,67,0.00,,---,0.00,VWS V14.00,2013-07-14 19:45:00,
2013-07-14 15:48:00,83.5,72.7,30.12,SSW,193,1.0,4.0,70,0.00,,---,0.00,VWS V14.00,2013-07-14 19:48:00,
2013-07-14 15:53:00,84.2,72.5,30.12,SW,219,0.0,4.0,68,0.00,,---,0.00,VWS V14.00,2013-07-14 19:53:00,
2013-07-14 16:00:00,85.4,73.6,30.12,South,180,1.0,5.0,68,0.00,,---,0.00,VWS V14.00,2013-07-14 20:00:00,
2013-07-14 16:15:00,85.2,72.1,30.12,South,180,1.0,6.0,65,0.00,,---,0.00,VWS V14.00,2013-07-14 20:15:00,
2013-07-14 16:30:00,83.8,72.1,30.11,South,180,0.0,6.0,68,0.00,,---,0.00,VWS V14.00,2013-07-14 20:30:00,
2013-07-14 16:45:00,83.0,72.2,30.12,SSE,158,0.0,4.0,70,0.00,,---,0.00,VWS V14.00,2013-07-14 20:45:00,
2013-07-14 17:00:00,82.8,72.9,30.12,SSE,158,0.0,0.0,72,0.00,,---,0.00,VWS V14.00,2013-07-14 21:00:00,
2013-07-14 17:14:00,84.4,73.1,30.12,SSW,202,0.0,4.0,69,0.00,,---,0.00,VWS V14.00,2013-07-14 21:14:00,
2013-07-14 17:15:00,83.6,73.2,30.12,SW,225,0.0,4.0,71,0.00,,---,0.00,VWS V14.00,2013-07-14 21:15:00,
2013-07-14 17:30:00,84.1,72.0,30.11,West,270,0.0,5.0,67,0.00,,---,0.00,VWS V14.00,2013-07-14 21:30:00,
2013-07-14 17:45:00,84.9,71.8,30.11,South,180,0.0,4.0,65,0.00,,---,0.00,VWS V14.00,2013-07-14 21:45:00,
2013-07-14 18:00:00,85.8,72.2,30.11,SSW,202,0.0,6.0,64,0.00,,---,0.00,VWS V14.00,2013-07-14 22:00:00,
2013-07-14 18:15:00,85.2,72.6,30.11,South,180,1.0,7.0,66,0.00,,---,0.00,VWS V14.00,2013-07-14 22:15:00,
2013-07-14 18:30:00,84.5,73.2,30.12,South,180,0.0,1.0,69,0.00,,---,0.00,VWS V14.00,2013-07-14 22:30:00,
2013-07-14 18:45:00,83.8,72.6,30.11,SSE,158,0.0,1.0,69,0.00,,---,0.00,VWS V14.00,2013-07-14 22:45:00,
2013-07-14 19:00:00,83.4,72.6,30.12,SSE,158,0.0,1.0,70,0.00,,---,0.00,VWS V14.00,2013-07-14 23:00:00,
2013-07-14 19:15:00,83.1,73.6,30.12,South,180,0.0,1.0,73,0.00,,---,0.00,VWS V14.00,2013-07-14 23:15:00,
2013-07-14 19:30:00,82.6,74.7,30.12,South,180,0.0,1.0,77,0.00,,---,0.00,VWS V14.00,2013-07-14 23:30:00,
2013-07-14 19:45:00,82.3,73.6,30.11,South,180,0.0,0.0,75,0.00,,---,0.00,VWS V14.00,2013-07-14 23:45:00,
2013-07-14 20:00:00,81.1,74.0,30.12,South,180,0.0,0.0,79,0.00,,---,0.00,VWS V14.00,2013-07-15 00:00:00,
2013-07-14 20:15:00,79.8,73.8,30.12,South,180,0.0,0.0,82,0.00,,---,0.00,VWS V14.00,2013-07-15 00:15:00,
2013-07-14 20:30:00,78.3,73.1,30.12,South,180,0.0,0.0,84,0.00,,---,0.00,VWS V14.00,2013-07-15 00:30:00,
2013-07-14 20:45:00,77.1,72.6,30.12,South,180,0.0,0.0,86,0.00,,---,0.00,VWS V14.00,2013-07-15 00:45:00,
2013-07-14 21:00:00,76.1,71.9,30.12,South,180,0.0,0.0,87,0.00,,---,0.00,VWS V14.00,2013-07-15 01:00:00,
2013-07-14 21:15:00,75.0,71.2,30.12,South,180,0.0,0.0,88,0.00,,---,0.00,VWS V14.00,2013-07-15 01:15:00,
2013-07-14 21:30:00,74.1,70.7,30.12,South,180,0.0,0.0,89,0.00,,---,0.00,VWS V14.00,2013-07-15 01:30:00,
2013-07-14 21:45:00,73.4,70.0,30.12,South,180,0.0,0.0,89,0.00,,---,0.00,VWS V14.00,2013-07-15 01:45:00,
2013-07-14 22:00:00,72.8,69.7,30.13,South,180,0.0,0.0,90,0.00,,---,0.00,VWS V14.00,2013-07-15 02:00:00,
2013-07-14 22:15:00,72.1,69.3,30.13,South,180,0.0,0.0,91,0.00,,---,0.00,VWS V14.00,2013-07-15 02:15:00,
2013-07-14 22:30:00,74.1,70.7,30.12,South,180,0.0,0.0,89,0.00,,---,0.00,VWS V14.00,2013-07-15 02:30:00,
2013-07-14 22:40:00,72.1,69.3,30.13,South,180,0.0,0.0,91,0.00,,---,0.00,VWS V14.00,2013-07-15 02:40:00,
2013-07-14 22:45:00,71.1,69.0,30.13,SSW,211,0.0,0.0,93,0.00,,---,0.00,VWS V14.00,2013-07-15 02:45:00,
2013-07-14 22:50:00,70.9,68.8,30.13,SSW,211,0.0,0.0,93,0.00,,---,0.00,VWS V14.00,2013-07-15 02:50:00,
2013-07-14 22:55:00,70.8,68.7,30.13,SSW,211,0.0,0.0,93,0.00,,---,0.00,VWS V14.00,2013-07-15 02:55:00,
2013-07-14 23:00:00,70.7,68.6,30.13,SSW,211,0.0,0.0,93,0.00,,---,0.00,VWS V14.00,2013-07-15 03:00:00,
2013-07-14 23:05:00,70.6,68.5,30.13,SSW,211,0.0,0.0,93,0.00,,---,0.00,VWS V14.00,2013-07-15 03:05:00,
2013-07-14 23:10:00,70.5,68.7,30.13,SSW,211,0.0,0.0,94,0.00,,---,0.00,VWS V14.00,2013-07-15 03:10:00,
2013-07-14 23:15:00,70.5,68.7,30.13,SSW,211,0.0,0.0,94,0.00,,---,0.00,VWS V14.00,2013-07-15 03:15:00,
2013-07-14 23:20:00,70.4,68.6,30.13,SSW,211,0.0,0.0,94,0.00,,---,0.00,VWS V14.00,2013-07-15 03:20:00,
2013-07-14 23:25:00,70.2,68.4,30.13,SSW,211,0.0,0.0,94,0.00,,---,0.00,VWS V14.00,2013-07-15 03:25:00,
2013-07-14 23:30:00,70.2,68.4,30.13,SSW,211,0.0,0.0,94,0.00,,---,0.00,VWS V14.00,2013-07-15 03:30:00,
2013-07-14 23:35:00,70.2,68.7,30.13,SSW,211,0.0,0.0,95,0.00,,---,0.00,VWS V14.00,2013-07-15 03:35:00,
2013-07-14 23:40:00,70.1,68.3,30.13,SSW,211,0.0,0.0,94,0.00,,---,0.00,VWS V14.00,2013-07-15 03:40:00,
2013-07-14 23:45:00,69.9,68.1,30.13,SSW,211,0.0,0.0,94,0.00,,---,0.00,VWS V14.00,2013-07-15 03:45:00,
2013-07-14 23:50:00,69.8,68.0,30.13,SSW,211,0.0,0.0,94,0.00,,---,0.00,VWS V14.00,2013-07-15 03:50:00,
2013-07-14 23:55:00,69.7,67.9,30.13,SSW,211,0.0,0.0,94,0.00,,---,0.00,VWS V14.00,2013-07-15 03:55:00,